COSMOS 249 DEB, 19362

Orbit data source: Space-Track

COSMOS 249 DEB, 19362 is space debris in LEO originally from a launch on Sun, 20 Oct 1968 UTC launched from the Tyuratam Missile And Space Complex (TTMTR). Debris objects in space refer to the collection of defunct objects orbiting the Earth. Examples of debris include non-operational satellites, rocket bodies, and fragments generated from explosions, collisions, or faulty payload assembly.

Loading next visibility...
Identifier
19362, 1968-091DJ
Orbit
LEO
Country
Flag of CISCIS
Related business
Manufacturer
Unknown
Mission
Spacecraft
Bus & Motor
Unknown
Mass
Unknown
Launch date (UTC)
1968-10-20 (57 years ago)
Launch vehicle
Unknown
Launch site
Tyuratam Missile And Space Complex (TTMTR)
Object type
Payload
Rocket body
Debris
Shape & HBR
Unknown shape, 0.1 m
Radar Cross Section
Small (<0.1 m²)

Expand to show TLE details & history
Last TLE update: 17 hours ago

TLE from 17 hours ago
0 COSMOS 249 DEB
1 19362U 68091DJ  26035.32163447  .00016925  00000-0  23510-2 0  9997
2 19362  62.7684  10.5341 0468006  38.2596 325.0712 14.23466805901039
Epoch: 2026-02-04T07:43Z
TLE epoch observation values (Epoch: 2026-02-04T07:43:09.218Z)
Latitude
-0.00005°
Longitude
120.25578°
Altitude
544.926 km
Speed
7.732 km/s
True Right ascension
00h 42m 08s
True Declination
0° 00' 00"
Sunlit
Object was in daylight at epoch
Visualization orbit readout
Latitude
Unknown
Longitude
Unknown
Altitude
Unknown
Speed
Unknown
Apparent Right ascension
Unknown
Apparent Declination
Unknown
Sunlit
N/A
Visualization observer readout
Local Sidereal Time
02:51:55
Azimuth
Unknown
Elevation
Unknown
Doppler factor
Unknown
Orbital elements
Apogee altitude
1,149.041 km
Perigee altitude
475.988 km
Semi-major axis
7,190.651 km
Eccentricity
0.0468
Inclination
62.7684°
RAAN
10.5341°
Arg. of periapsis
38.2596°
True anomaly
321.84795°
Mean anomaly
325.0712°
Eccentric anomaly
323.47527°
Mean motion
3.55951 °/min
Orbital period
101.14 mins
BSTAR
0.002351
Loading maneuver chart data...
Computing Atmospheric mass density...

Documentation

Showing up to 5 results
|